Location: Bosmont
(49.7318°N, 3.8587°E)
Time: 09:55:01
(UTC+00:00)

Cosmos 2278 Rocket - Pass Details

Date: 08 February 2023
Orbit: 841 x 845 km, 71.0° (Epoch: 23 March)

Event Time Altitude Azimuth Distance (km) Brightness Sun altitude
Rises 20:26:19 0° 321° (NW) 3,415 6.1 -34.8°
Reaches altitude 10° 20:29:18 10° 307° (NW) 2,474 5.4 -35.3°
Maximum altitude 20:33:28 22° 259° (W) 1,787 4.3 -35.9°
Enters shadow 20:35:28 18° 231° (SW) 1,962 4.3 -36.2°
